Regional Weather Roundup
Issued by NWS

Home | Current Version | Previous Version | Text Only | Print | Product List | Glossary Off
Versions: 1 2 3 4 5 6 7 8 9 10 11 12 13 14 15 16 17 18 19 20 21 22 23 24 25 26 27 28 29 30 31 32 33 34 35 36 37 38 39 40 41 42 43 44 45 46 47 48 49 50

448
ASUS43 KOAX 271202
RWRNE

WEATHER ROUNDUP FOR NEBRASKA
NATIONAL WEATHER SERVICE OMAHA NE
700 AM CDT THU APR 27 2017

NOTES: SATELLITE DATA IS BEING USED TO AUGMENT CLOUD COVER ABOVE
       12000 FEET.
       "FAIR" INDICATES FEW OR NO CLOUDS BELOW 12,000 FEET WITH NO
       SIGNIFICANT WEATHER AND/OR OBSTRUCTIONS TO VISIBILITY.

  * THESE STATIONS DO NOT REPORT WEATHER SUCH AS RAIN...SNOW OR FOG.

NEZ001>004-019>022-054>056-271300-
NEBRASKA PANHANDLE

CITY           SKY/WX    TMP DP  RH WIND       PRES   REMARKS
SCOTTSBLUFF    PTCLDY    36  33  89 E10       29.57S WCI  28
6HR MIN TEMP:  36; 6HR MAX TEMP:  41;

ALLIANCE       CLEAR     29  26  89 E9        29.59F WCI  20
6HR MIN TEMP:  28; 6HR MAX TEMP:  31;

CHADRON        CLOUDY    30  27  88 N5        29.61F WCI  25
6HR MIN TEMP:  28; 6HR MAX TEMP:  30;

KIMBALL        CLOUDY    40  38  96 S8        29.57F WCI  34
SIDNEY         CLOUDY    37  36  96 SE7       29.58F WCI  32
6HR MIN TEMP:  37; 6HR MAX TEMP:  41;

$$

NEZ057>060-069>072-079>082-271300-
SOUTHWEST NEBRASKA

CITY           SKY/WX    TMP DP  RH WIND       PRES   REMARKS
NORTH PLATTE   CLOUDY    35  32  88 E3        29.67S
6HR MIN TEMP:  31; 6HR MAX TEMP:  36;

IMPERIAL       CLOUDY    35  29  78 SE10      29.62F WCI  27
6HR MIN TEMP:  33; 6HR MAX TEMP:  41;

LEXINGTON      CLEAR     27  24  91 CALM      29.69S
MCCOOK         MOCLDY    31  29  92 E5        29.68R WCI  26
6HR MIN TEMP:  29; 6HR MAX TEMP:  35;

OGALLALA       CLOUDY    35  31  87 E8        29.64S WCI  28
$$

NEZ005>010-023>029-035>040-094-271300-
NORTH CENTRAL NEBRASKA

CITY           SKY/WX    TMP DP  RH WIND       PRES   REMARKS
VALENTINE      CLEAR     21  17  84 W3        29.67S
6HR MIN TEMP:  21; 6HR MAX TEMP:  29;

AINSWORTH      CLEAR     26  25  96 W5        29.66S WCI  20
BROKEN BOW     CLEAR     27  23  85 CALM      29.66F
6HR MIN TEMP:  25; 6HR MAX TEMP:  32;

O`NEILL        CLEAR     26  24  89 N5        29.67S WCI  21
ORD            CLEAR     27  24  89 CALM      29.67S
6HR MIN TEMP:  26; 6HR MAX TEMP:  32;

THEDFORD       CLOUDY    26  24  96 W3        29.67R
$$

NEZ041-046>049-061>064-073>077-083>087-271300-
SOUTH CENTRAL NEBRASKA

CITY           SKY/WX    TMP DP  RH WIND       PRES   REMARKS
GRAND ISLAND   CLEAR     28  26  92 W9        29.70R WCI  19
6HR MIN TEMP:  25; 6HR MAX TEMP:  31;

AURORA         CLEAR     27  25  94 W7        29.69R WCI  19
HASTINGS       CLEAR     30  25  81 NW5       29.71R WCI  25
6HR MIN TEMP:  27; 6HR MAX TEMP:  31;

HEBRON         CLEAR     30  27  88 W5        29.71R WCI  25
HOLDREGE       MOCLDY    28  25  91 CALM      29.69R
KEARNEY *      CLEAR     28  23  80 CALM      29.70S
YORK           CLEAR     28  27  93 NW7       29.69R WCI  21
$$

NEZ011>018-030>034-042>045-271300-
NORTHEAST NEBRASKA

CITY           SKY/WX    TMP DP  RH WIND       PRES   REMARKS
NORFOLK        MOCLDY    30  26  85 NW8       29.67R WCI  22
6HR MIN TEMP:  29; 6HR MAX TEMP:  36;

ALBION         CLEAR     28  25  86 CALM      29.67S
BLAIR          CLOUDY    35  30  83 NW8       29.67R WCI  29
FREMONT        CLOUDY    36  32  85 NW8       29.68S WCI  30
TEKAMAH        CLOUDY    35  28  75 NW12      29.68R WCI  27
6HR MIN TEMP:  33; 6HR MAX TEMP:  38;

WAYNE          CLOUDY    33  30  90 N12       29.68R WCI  24
$$

NEZ050>053-065>068-078-088>093-271300-
SOUTHEAST NEBRASKA

CITY           SKY/WX    TMP DP  RH WIND       PRES   REMARKS
LINCOLN        CLEAR     33  28  81 W3        29.71R
6HR MIN TEMP:  32; 6HR MAX TEMP:  42;

OMAHA EPPLEY   CLOUDY    36  28  73 N9        29.68R WCI  29
6HR MIN TEMP:  36; 6HR MAX TEMP:  40;

BEATRICE       PTCLDY    32  29  88 W7        29.71R WCI  25
FALLS CITY     CLOUDY    40  33  76 W7        29.69R
6HR MIN TEMP:  39; 6HR MAX TEMP:  42;

NEBRASKA CITY  CLOUDY    40  30  65 NW7       29.68R
PLATTSMOUTH    MOCLDY    37  28  70 N3        29.67S
$$

NEZ044-045-051>053-067-271300-
OMAHA AREA

CITY           SKY/WX    TMP DP  RH WIND       PRES   REMARKS
OMAHA EPPLEY   CLOUDY    36  28  73 N9        29.68R WCI  29
6HR MIN TEMP:  36; 6HR MAX TEMP:  40;

BLAIR          CLOUDY    35  30  83 NW8       29.67R WCI  29
FREMONT        CLOUDY    36  32  85 NW8       29.68S WCI  30
MILLARD        CLOUDY    38  32  77 NW6       29.69R WCI  34
OFFUTT AFB     MOCLDY    36  28  74 NW8       29.68  WCI  29
PLATTSMOUTH    MOCLDY    37  28  70 N3        29.67S
WAHOO          FAIR      34  29  81 NW7       29.68S WCI  28
$$




USA.gov is the U.S. government's official web portal to all federal, state and local government web resources and services.